Location: Chervonnoye
(48.6000°N, 34.4000°E)
Time: 16:04:26
(UTC+00:00)

YAOGAN 1 - Pass Details

Date: 23 November 2020
Orbit: 618 x 620 km, 97.9° (Epoch: 27 January)

Event Time Altitude Azimuth Distance (km) Brightness Sun altitude
Exits shadow 14:49:18 - 93° (E) 2,056 4.7 -9.0°
Reaches altitude 10° 14:49:35 10° 90° (E) 1,991 4.6 -9.0°
Maximum altitude 14:51:51 14° 58° (ENE) 1,733 4.2 -9.4°
Drops below altitude 10° 14:54:08 10° 26° (NNE) 1,999 4.7 -9.7°
Sets 14:57:14 0° 2° (N) 2,911 5.8 -10.2°
